カタログに戻る

BREEZE-M DEB

運用中HEO
NORAD 48535·DEBRIS·🇷🇺 Russia

打ち上げ Mar 14, 2008 から Baikonur Cosmodrome

Loading…

次のパス (今後24時間)

TLE

最新Source: Space-Track

元期: Sep 13, 2026, 17:44 UTC

1 48535U 08011EA  26256.73944263  .00001088  00000-0  29936-1 0  9991
2 48535  50.3805  63.0644 6400946  70.7664 345.2727  3.08512169 52800

AllMySatでBREEZE-M DEBをリアルタイム追跡

Download on the App Store